User: anonymous   Login
Location: Unspecified
(0.0000°N, 0.0000°E)
Time: 08:06:20
(UTC+00:00)
Language:

deb Explorer IX - Orbit

View from above orbital plane
View from above orbital plane
View from above satellite
View from above satellite

Ground track
Ground track

The orbit data is extracted from the following two-line orbital elements,

1    85U 61004C   20093.93782290 +.00000882 +00000-0 +21452-3 0  9993
2    85 038.7689 046.1815 0383810 357.5582 002.3294 14.20409914920352
Epoch (UTC): 02 April 2020 22:30:27
Eccentricity: 0.0383810
inclination: 38.7689°
perigee height: 547 km
apogee height: 1100 km
right ascension of ascending node: 46.1815°
argument of perigee: 357.5582°
revolutions per day: 14.20409914
mean anomaly at epoch: 2.3294°
orbit number at epoch: 92035

The dashed part of the orbit path shows where the satellite is in the earth's shadow,  

DLR